• In Russia
  • List of Countries
  • For 7 days
  • Water Temperature
  • Satellite Maps
  • Weather Map
  • Weather Widgets
  • user-avatar
    Login

    Hourly Weather Nikolo-Azyas

    Today, 26 September, Wednesday

    Time Temperature Precipitation Wind Pressure Humidity
    00:00 +6°C° 0 mm 4 mps 742 mmHg 87%
    01:00 +6°C° 0 mm 4 mps 742 mmHg 88%
    02:00 +5°C° 0 mm 4 mps 743 mmHg 89%
    03:00 +5°C° 0 mm 4 mps 742 mmHg 90%
    04:00 +5°C° 0 mm 4 mps 743 mmHg 91%
    05:00 +4°C° 0 mm 4 mps 744 mmHg 92%
    06:00 +4°C° 0 mm 4 mps 744 mmHg 92%
    07:00 +5°C° 0 mm 4 mps 745 mmHg 88%
    08:00 +6°C° 0 mm 4 mps 745 mmHg 84%
    09:00 +7°C° 0 mm 4 mps 746 mmHg 79%
    10:00 +8°C° 0 mm 4 mps 746 mmHg 76%
    11:00 +8°C° 0 mm 4 mps 746 mmHg 72%
    12:00 +10°C° 0 mm 4 mps 747 mmHg 68%
    13:00 +10°C° 0 mm 4 mps 747 mmHg 66%
    14:00 +10°C° 0 mm 4 mps 747 mmHg 63%
    15:00 +10°C° 0 mm 4 mps 747 mmHg 61%
    16:00 +10°C° 0 mm 3 mps 748 mmHg 63%
    17:00 +9°C° 0 mm 3 mps 748 mmHg 65%
    18:00 +8°C° 0 mm 2 mps 748 mmHg 67%
    19:00 +8°C° 0 mm 2 mps 748 mmHg 69%
    20:00 +7°C° 0 mm 2 mps 748 mmHg 72%
    21:00 +5°C° 0 mm 3 mps 748 mmHg 75%
    22:00 +5°C° 0 mm 3 mps 748 mmHg 75%
    23:00 +4°C° 0 mm 3 mps 748 mmHg 76%

    Tomorrow, 27 September, Thursday

    Time Temperature Precipitation Wind Pressure Humidity
    00:00 +4°C° 0 mm 3 mps 748 mmHg 77%
    01:00 +4°C° 0 mm 4 mps 747 mmHg 77%
    02:00 +4°C° 0 mm 4 mps 747 mmHg 77%
    03:00 +3°C° 0 mm 5 mps 747 mmHg 78%
    04:00 +3°C° 0 mm 5 mps 746 mmHg 76%
    05:00 +3°C° 0 mm 6 mps 745 mmHg 74%
    06:00 +3°C° 0 mm 6 mps 744 mmHg 73%
    07:00 +4°C° 0 mm 7 mps 744 mmHg 69%
    08:00 +4°C° 0 mm 8 mps 743 mmHg 65%
    09:00 +5°C° 0 mm 9 mps 742 mmHg 61%
    10:00 +5°C° 0.5 mm 10 mps 742 mmHg 63%
    11:00 +5°C° 0.5 mm 10 mps 741 mmHg 65%
    12:00 +5°C° 0.5 mm 10 mps 740 mmHg 67%
    13:00 +5°C° 1 mm 10 mps 740 mmHg 70%
    14:00 +3°C° 1 mm 10 mps 739 mmHg 74%
    15:00 +3°C° 1 mm 11 mps 739 mmHg 78%
    16:00 +5°C° 0.5 mm 10 mps 738 mmHg 80%
    17:00 +5°C° 0.5 mm 9 mps 738 mmHg 82%
    18:00 +5°C° 0.5 mm 9 mps 738 mmHg 84%
    19:00 +5°C° 0.3 mm 8 mps 738 mmHg 84%
    20:00 +6°C° 0.3 mm 8 mps 739 mmHg 83%
    21:00 +6°C° 0.3 mm 7 mps 739 mmHg 83%
    22:00 +5°C° 0 mm 7 mps 739 mmHg 85%
    23:00 +5°C° 0 mm 6 mps 740 mmHg 86%

    Day after tomorrow, 28 September, Friday

    Time Temperature Precipitation Wind Pressure Humidity
    00:00 +5°C° 0 mm 6 mps 740 mmHg 88%
    01:00 +5°C° 0 mm 6 mps 740 mmHg 89%
    02:00 +4°C° 0 mm 6 mps 740 mmHg 90%
    03:00 +4°C° 0 mm 6 mps 741 mmHg 91%
    04:00 +4°C° 0 mm 6 mps 741 mmHg 92%
    05:00 +5°C° 0 mm 5 mps 741 mmHg 93%
    06:00 +5°C° 0 mm 5 mps 741 mmHg 94%
    07:00 +5°C° 0 mm 6 mps 741 mmHg 88%
    08:00 +6°C° 0 mm 7 mps 741 mmHg 82%
    09:00 +8°C° 0 mm 7 mps 741 mmHg 77%
    10:00 +10°C° 0 mm 8 mps 741 mmHg 71%
    11:00 +11°C° 0 mm 8 mps 740 mmHg 66%
    12:00 +12°C° 0 mm 9 mps 740 mmHg 61%
    13:00 +13°C° 0 mm 9 mps 739 mmHg 60%
    14:00 +13°C° 0 mm 9 mps 739 mmHg 58%
    15:00 +14°C° 0 mm 10 mps 738 mmHg 57%
    16:00 +13°C° 0 mm 9 mps 738 mmHg 60%
    17:00 +13°C° 0 mm 8 mps 738 mmHg 64%
    18:00 +12°C° 0 mm 8 mps 738 mmHg 67%
    19:00 +12°C° 0 mm 8 mps 737 mmHg 67%
    20:00 +12°C° 0 mm 8 mps 737 mmHg 68%
    21:00 +12°C° 0 mm 9 mps 737 mmHg 69%
    22:00 +12°C° 0.1 mm 8 mps 737 mmHg 73%
    23:00 +12°C° 0.1 mm 8 mps 738 mmHg 76%

    29 September, Saturday

    Time Temperature Precipitation Wind Pressure Humidity
    00:00 +12°C° 0.1 mm 7 mps 738 mmHg 79%
    01:00 +11°C° 0 mm 7 mps 739 mmHg 79%
    02:00 +9°C° 0 mm 6 mps 740 mmHg 78%
    03:00 +8°C° 0 mm 5 mps 741 mmHg 77%
    04:00 +7°C° 0 mm 4 mps 741 mmHg 79%
    05:00 +6°C° 0 mm 4 mps 742 mmHg 81%
    06:00 +5°C° 0 mm 3 mps 742 mmHg 83%
    07:00 +5°C° 0 mm 3 mps 743 mmHg 78%
    08:00 +7°C° 0 mm 3 mps 744 mmHg 74%
    09:00 +8°C° 0 mm 3 mps 744 mmHg 69%
    10:00 +8°C° 0 mm 3 mps 744 mmHg 60%
    11:00 +9°C° 0 mm 3 mps 745 mmHg 52%
    12:00 +10°C° 0 mm 3 mps 745 mmHg 43%
    13:00 +11°C° 0 mm 3 mps 745 mmHg 43%
    14:00 +11°C° 0 mm 3 mps 745 mmHg 42%
    15:00 +11°C° 0 mm 3 mps 745 mmHg 42%
    16:00 +10°C° 0 mm 2 mps 746 mmHg 46%
    17:00 +9°C° 0 mm 2 mps 746 mmHg 50%
    18:00 +8°C° 0 mm 2 mps 746 mmHg 54%
    19:00 +8°C° 0 mm 2 mps 746 mmHg 56%
    20:00 +8°C° 0 mm 2 mps 747 mmHg 58%
    21:00 +7°C° 0 mm 2 mps 747 mmHg 59%
    22:00 +7°C° 0 mm 2 mps 747 mmHg 61%
    23:00 +7°C° 0 mm 2 mps 748 mmHg 62%

    30 September, Sunday

    Time Temperature Precipitation Wind Pressure Humidity
    00:00 +7°C° 0 mm 2 mps 748 mmHg 64%
    01:00 +6°C° 0 mm 2 mps 748 mmHg 64%
    02:00 +6°C° 0 mm 2 mps 748 mmHg 64%
    03:00 +6°C° 0 mm 2 mps 749 mmHg 65%
    04:00 +5°C° 0 mm 2 mps 749 mmHg 64%
    05:00 +5°C° 0 mm 2 mps 749 mmHg 64%
    06:00 +4°C° 0 mm 2 mps 749 mmHg 64%
    07:00 +4°C° 0 mm 3 mps 749 mmHg 60%
    08:00 +4°C° 0 mm 3 mps 749 mmHg 56%
    09:00 +5°C° 0 mm 4 mps 750 mmHg 52%
    10:00 +6°C° 0 mm 4 mps 750 mmHg 50%
    11:00 +7°C° 0 mm 4 mps 750 mmHg 47%
    12:00 +7°C° 0 mm 4 mps 750 mmHg 45%
    13:00 +7°C° 0 mm 4 mps 750 mmHg 44%
    14:00 +8°C° 0 mm 5 mps 749 mmHg 44%
    15:00 +8°C° 0 mm 5 mps 749 mmHg 43%
    16:00 +7°C° 0 mm 4 mps 749 mmHg 46%
    17:00 +5°C° 0 mm 3 mps 750 mmHg 50%
    18:00 +5°C° 0 mm 2 mps 750 mmHg 53%
    19:00 +5°C° 0 mm 2 mps 750 mmHg 55%
    20:00 +4°C° 0 mm 2 mps 750 mmHg 56%
    21:00 +5°C° 0 mm 1 mps 751 mmHg 58%
    22:00 +5°C° 0 mm 1 mps 751 mmHg 59%
    23:00 +3°C° 0 mm 2 mps 751 mmHg 61%

    1 October, Monday

    Time Temperature Precipitation Wind Pressure Humidity
    00:00 +3°C° 0 mm 2 mps 750 mmHg 62%
    01:00 +3°C° 0 mm 2 mps 751 mmHg 65%
    02:00 +3°C° 0 mm 2 mps 751 mmHg 68%
    03:00 +2°C° 0 mm 3 mps 751 mmHg 71%
    04:00 +2°C° 0 mm 3 mps 750 mmHg 73%
    05:00 +2°C° 0 mm 3 mps 750 mmHg 74%
    06:00 +2°C° 0 mm 3 mps 750 mmHg 75%
    07:00 +3°C° 0 mm 3 mps 750 mmHg 69%
    08:00 +5°C° 0 mm 4 mps 750 mmHg 63%
    09:00 +6°C° 0 mm 4 mps 750 mmHg 57%
    10:00 +8°C° 0 mm 5 mps 750 mmHg 54%
    11:00 +9°C° 0 mm 5 mps 750 mmHg 50%
    12:00 +10°C° 0 mm 5 mps 750 mmHg 47%
    13:00 +10°C° 0 mm 5 mps 750 mmHg 47%
    14:00 +12°C° 0 mm 5 mps 750 mmHg 47%
    15:00 +12°C° 0 mm 5 mps 750 mmHg 47%
    16:00 +11°C° 0 mm 4 mps 750 mmHg 52%
    17:00 +10°C° 0 mm 3 mps 750 mmHg 57%
    18:00 +8°C° 0 mm 2 mps 750 mmHg 62%
    19:00 +8°C° 0 mm 2 mps 750 mmHg 64%
    20:00 +7°C° 0 mm 2 mps 750 mmHg 66%
    21:00 +7°C° 0 mm 2 mps 750 mmHg 68%
    22:00 +7°C° 0 mm 2 mps 750 mmHg 68%
    23:00 +6°C° 0 mm 2 mps 750 mmHg 69%
    Show more